Aiguafreda





Hora UTC 07:05
Temperatura 0.0 ºC
Suelo 15 cm -1.3 ºC
Humedad 96.8 %
Presión 1023.7 hPa
Pluja 0.0 mm
Velocidad viento 0.0 km/h
Dirección viento NNE
Radiación solar 14.2 W/m²

Datos diarios 2020-02-20



Hora UTC (invierno +1h; verano +2h)
Temperatura (ºC) Humedad (%) Presión (hPa) Velocidad viento (km/h) Precipitación (mm) Radiación solar (W/m²)
Hora UTC Aire Suelo 15 cm Humedad Presión Vel. Dir. Vel. Max Dir. Intent. máx 5 min. Rad. Sol.
00:05 1.8 0.4 95.1 1025.7 0.0 NNE 0.0 NNW 0.0 1.1
00:10 1.7 0.4 95.1 1025.7 0.0 NNE 0.0 N 0.0 1.1
00:15 1.6 0.3 95.1 1025.6 0.0 NNE 0.0 N 0.0 1.1
00:20 1.6 0.2 95.2 1025.7 0.0 NNE 0.0 NNW 0.0 1.1
00:25 1.6 0.2 95.3 1025.6 0.0 NNE 0.0 NNW 0.0 1.2
00:30 1.6 0.2 95.4 1025.6 0.0 NNE 0.0 NNW 0.0 1.1
00:35 1.6 0.2 95.5 1025.6 0.0 NNE 0.0 NNE 0.0 1.0
00:40 1.5 0.1 95.4 1025.5 0.0 NNE 0.0 NNW 0.0 0.8
00:45 1.4 0.1 95.3 1025.4 0.0 NNE 0.0 NNW 0.0 0.7
00:50 1.4 0.0 95.4 1025.4 0.0 NNE 0.0 N 0.0 0.6
00:55 1.3 0.0 95.4 1025.5 0.0 NNE 0.0 N 0.0 0.6
01:00 1.3 -0.1 95.4 1025.4 0.0 NNE 0.0 N 0.0 0.5
01:05 1.3 -0.1 95.5 1025.4 0.0 NNE 0.0 N 0.0 0.6
01:10 1.2 -0.1 95.6 1025.4 0.0 NNE 0.0 N 0.0 0.5
01:15 1.2 -0.1 95.6 1025.4 0.0 NNE 0.0 NE 0.0 0.5
01:20 1.1 -0.2 95.6 1025.3 0.0 NNE 0.0 NE 0.0 0.6
01:25 1.1 -0.2 95.7 1025.2 0.0 NNE 0.0 SE 0.0 0.6
01:30 1.1 -0.3 95.8 1025.2 0.0 NNE 0.0 ESE 0.0 0.7
01:35 1.1 -0.3 95.8 1025.1 0.0 NNE 0.0 ESE 0.0 0.7
01:40 1.0 -0.2 95.9 1025.0 0.0 NNE 0.0 NE 0.0 0.7
01:45 1.0 -0.3 95.8 1024.9 0.0 NNE 0.0 N 0.0 0.8
01:50 1.0 -0.3 95.8 1024.8 0.0 NNE 0.0 N 0.0 0.8
01:55 0.9 -0.4 95.8 1024.7 0.0 NNE 0.0 N 0.0 0.7
02:00 0.9 -0.4 95.9 1024.7 0.0 NNE 0.0 ESE 0.0 0.7
02:05 0.9 -0.5 95.9 1024.8 0.0 NNE 0.0 ESE 0.0 0.7
02:10 0.9 -0.5 96.0 1024.7 0.0 NNE 0.0 ESE 0.0 0.8
02:15 0.8 -0.5 95.9 1024.7 0.0 NNE 0.0 ESE 0.0 0.8
02:20 0.8 -0.5 96.0 1024.7 0.0 NNE 0.0 ESE 0.0 0.8
02:25 0.8 -0.5 96.0 1024.6 0.0 NNE 0.0 N 0.0 0.8
02:30 0.7 -0.5 96.0 1024.6 0.0 NNE 0.0 N 0.0 0.7
02:35 0.7 -0.6 96.0 1024.6 0.0 NNE 0.0 N 0.0 0.8
02:40 0.7 -0.6 96.1 1024.5 0.0 NNE 0.0 N 0.0 0.7
02:45 0.7 -0.6 96.2 1024.5 0.0 NNE 0.0 E 0.0 0.7
02:50 0.7 -0.6 96.2 1024.5 0.0 NNE 0.0 NW 0.0 0.9
02:55 0.7 -0.7 96.2 1024.5 0.0 NNE 0.0 NNW 0.0 0.8
03:00 0.6 -0.7 96.2 1024.3 0.0 NNE 0.0 NNW 0.0 0.9
03:05 0.5 -0.8 96.1 1024.3 0.0 NNE 0.0 NNW 0.0 0.9
03:10 0.5 -0.8 96.2 1024.3 0.0 NNE 0.0 NNW 0.0 1.0
03:15 0.5 -0.9 96.2 1024.2 0.0 NNE 0.0 NNW 0.0 1.1
03:20 0.4 -0.9 96.3 1024.2 0.0 NNE 0.0 NNW 0.0 1.2
03:25 0.4 -0.9 96.3 1024.1 0.0 NNE 0.0 ENE 0.0 1.3
03:30 0.4 -0.9 96.3 1024.0 0.0 NNE 0.0 NNW 0.0 1.2
03:35 0.4 -0.9 96.3 1024.1 0.0 NNE 0.0 NNW 0.0 1.3
03:40 0.3 -1.0 96.3 1024.0 0.0 NNE 0.0 NNW 0.0 1.3
03:45 0.3 -1.0 96.4 1024.0 0.0 NNE 0.0 NNW 0.0 1.3
03:50 0.3 -1.0 96.4 1024.0 0.0 NNE 0.0 NNE 0.0 1.3
03:55 0.3 -1.0 96.5 1024.0 0.0 NNE 0.0 NNE 0.0 1.3
04:00 0.3 -1.1 96.5 1024.0 0.0 NNE 0.0 NNE 0.0 1.2
04:05 0.2 -1.2 96.4 1023.9 0.0 NNE 0.0 NNE 0.0 1.2
04:10 0.2 -1.2 96.4 1023.9 0.0 NNE 0.0 SW 0.0 1.0
04:15 0.2 -1.2 96.5 1023.9 0.0 NNE 0.0 E 0.0 1.0
04:20 0.1 -1.2 96.5 1023.9 0.0 NNE 0.0 E 0.0 1.1
04:25 0.1 -1.2 96.5 1023.9 0.0 NNE 0.0 E 0.0 1.1
04:30 0.1 -1.2 96.5 1023.8 0.0 NNE 0.0 E 0.0 1.0
04:35 0.1 -1.3 96.6 1023.8 0.0 NNE 0.0 E 0.0 0.9
04:40 0.0 -1.3 96.6 1023.9 0.0 NNE 0.0 E 0.0 1.1
04:45 0.0 -1.3 96.6 1023.9 0.0 NNE 0.0 E 0.0 1.0
04:50 0.0 -1.3 96.7 1023.9 0.0 NNE 0.0 E 0.0 1.0
04:55 0.0 -1.3 96.6 1023.8 0.0 NNE 0.0 E 0.0 1.1
05:00 -0.1 -1.3 96.6 1023.9 0.0 NNE 0.0 E 0.0 1.0
05:05 -0.1 -1.4 96.6 1023.8 0.0 NNE 0.0 E 0.0 0.9
05:10 -0.1 -1.4 96.7 1023.7 0.0 NNE 0.0 E 0.0 0.9
05:15 -0.1 -1.4 96.7 1023.7 0.0 NNE 0.0 E 0.0 1.0
05:20 -0.1 -1.4 96.8 1023.8 0.0 NNE 0.0 NE 0.0 1.1
05:25 -0.1 -1.4 96.8 1023.7 0.0 NNE 0.0 NE 0.0 0.9
05:30 -0.1 -1.5 96.8 1023.7 0.0 NNE 0.0 NE 0.0 1.2
05:35 -0.2 -1.5 96.7 1023.7 0.0 NNE 0.0 NE 0.0 1.3
05:40 -0.2 -1.5 96.8 1023.7 0.0 NNE 0.0 NE 0.0 1.2
05:45 -0.2 -1.5 96.8 1023.6 0.0 NNE 0.0 ENE 0.0 1.3
05:50 -0.2 -1.5 96.9 1023.7 0.0 NNE 0.0 SE 0.0 1.3
05:55 -0.1 -1.5 97.0 1023.8 0.0 NNE 0.0 SE 0.0 1.4
06:00 -0.1 -1.5 97.0 1023.7 0.0 NNE 0.0 SE 0.0 1.3
06:05 0.0 -1.4 97.1 1023.7 0.0 NNE 0.0 NNW 0.0 1.3
06:10 0.1 -1.2 97.2 1023.7 0.0 NNE 0.0 N 0.0 1.3
06:15 0.1 -1.1 97.1 1023.7 0.0 NNE 0.0 S 0.0 1.4
06:20 0.1 -1.3 97.0 1023.7 0.0 NNE 0.0 SSE 0.0 1.5
06:25 0.1 -1.3 97.0 1023.7 0.0 NNE 0.0 SSE 0.0 1.9
06:30 0.1 -1.4 97.1 1023.7 0.0 NNE 0.0 SSE 0.0 2.5
06:35 0.2 -1.4 97.2 1023.8 0.0 NNE 0.0 SSE 0.0 3.5
06:40 0.2 -1.1 97.1 1023.8 0.0 NNE 0.0 W 0.0 4.9
06:45 0.2 -1.1 97.0 1023.7 0.2 S 3.4 S 0.0 6.7
06:50 0.1 -1.2 96.8 1023.7 0.0 NNE 0.0 SE 0.0 8.6
06:55 0.0 -1.3 96.7 1023.7 0.0 NNE 0.0 SSE 0.0 10.6
07:00 0.0 -1.3 96.7 1023.7 0.0 NNE 0.0 SSE 0.0 12.3
07:05 0.0 -1.3 96.8 1023.7 0.0 NNE 0.0 SSE 0.0 14.2
Máxima 1.8 0.4 97.2 1025.7 0.2 S 3.4 S 0.0 14.2
Mínima -0.2 -1.5 95.1 1023.6
Total 0.0